Tracking 21607 objects as of 23-Oct-2020
HD Live streaming from Space Station
objects crossing your sky now

COSMOS 2041

Track COSMOS 2041 now!
10-day predictions
COSMOS 2041 is classified as:


NORAD ID: 20235
Int'l Code: 1989-074D
Perigee: 1,402.9 km
Apogee: 1,417.9 km
Inclination: 82.6 °
Period: 113.9 minutes
Semi major axis: 7781 km
RCS: 1.3161 m2 (large)
Launch date: September 14, 1989
Source: Commonwealth of Independent States (former USSR) (CIS)
Launch site: PLESETSK MISSILE AND SPACE COMPLEX (PKMTR)
aabbcc
Your satellite tracking list
Your tracking list is empty




NASA's NSSDC Master Catalog

Two Line Element Set (TLE):
1 20235U 89074D   20296.89500844 +.00000030 +00000-0 +10506-3 0  9995
2 20235 082.5803 091.3448 0009585 110.2823 000.2018 12.64781935435899
Source of the keplerian elements: AFSPC